Vorticity
nan nan nan nan nan nan nan nan nan nan nan nan nan nan nan nan nan nan nan nan nan nan nan nan nan nan nan nan nan nan nan nan nan nan nan nan nan nan nan nan nan nan nan
nan 5 7 6 5 6 7 8 8 7 6 7 8 9 9 11 12 10 9 11 10 11 12 9 10 9 7 10 11 9 9 10 10 9 11 10 9 11 10 11 11 10 nan
nan 6 8 7 5 5 8 10 9 8 7 7 9 9 9 10 10 12 13 11 10 10 8 8 8 8 12 12 9 12 11 10 10 13 10 10 11 10 11 12 11 11 nan
nan 7 7 6 7 7 9 10 10 9 8 9 9 9 11 9 13 12 11 11 8 8 8 7 10 14 10 10 11 10 10 11 11 10 9 9 10 11 11 11 11 11 nan
nan 8 6 7 8 8 10 10 9 8 8 10 10 10 11 11 15 13 11 10 9 8 9 11 10 13 13 8 6 7 9 10 8 10 10 9 7 9 11 11 10 9 nan
nan 7 6 8 9 9 10 10 9 7 9 9 9 13 10 16 15 7 7 8 9 12 11 10 12 10 10 11 9 7 6 5 8 8 7 7 8 9 10 10 10 10 nan
nan 8 8 7 8 10 9 8 9 9 10 10 10 14 12 17 8 4 5 6 10 11 10 9 10 13 10 8 13 11 15 16 12 8 7 7 9 8 9 10 10 9 nan
nan 7 8 9 9 8 9 9 10 11 9 11 12 12 12 15 10 4 5 7 10 10 9 9 10 8 13 10 10 11 11 14 13 12 10 8 7 6 7 10 11 13 nan
nan 8 9 9 9 9 9 9 11 11 9 10 14 13 15 14 9 3 4 10 10 10 10 10 15 11 4 8 11 11 11 11 9 6 11 13 13 14 11 10 11 11 nan
nan 9 10 10 9 9 10 11 12 12 12 11 12 11 12 15 12 4 5 7 10 11 9 16 11 8 3 7 11 11 11 8 8 12 14 15 17 19 21 14 9 10 nan
nan 9 9 9 10 10 10 12 12 10 11 12 15 11 12 13 10 8 5 5 8 9 10 10 4 4 6 9 13 12 6 9 13 14 13 13 12 13 13 12 13 13 nan
nan 10 8 10 11 9 10 10 13 12 11 12 11 10 12 12 14 12 6 2 5 10 9 8 2 1 9 13 14 8 9 16 13 12 12 11 11 11 9 10 13 14 nan
nan 8 10 11 12 10 10 9 12 15 15 13 9 9 10 10 15 16 9 7 5 5 6 9 8 7 11 12 12 11 12 11 11 11 11 10 10 9 10 12 12 14 nan
nan 10 11 10 10 14 12 12 13 10 11 12 10 11 10 10 13 14 12 12 11 10 10 6 12 17 15 12 8 11 12 10 10 11 10 11 11 11 11 11 11 12 nan
nan 11 12 14 10 9 12 13 11 11 11 11 10 11 11 11 11 10 10 10 9 8 11 11 10 11 12 13 13 11 10 10 11 10 11 11 10 10 11 11 11 11 nan
nan 12 11 9 10 11 11 12 15 14 9 9 8 7 8 11 13 9 7 7 7 7 7 9 10 10 9 9 10 10 10 10 10 10 10 10 11 11 10 11 11 11 nan
nan 8 10 9 8 11 13 11 12 18 15 10 9 7 6 5 6 9 10 10 10 8 6 8 9 10 10 10 10 10 10 11 10 10 9 11 10 10 11 12 10 11 nan
nan 10 8 9 11 11 10 10 10 10 13 19 18 15 13 9 8 9 11 10 12 9 6 9 11 10 10 10 10 10 10 10 11 10 10 11 11 10 11 11 10 11 nan
nan 10 11 12 11 11 11 11 12 11 10 11 17 18 17 16 15 14 11 9 10 10 11 10 9 9 10 10 10 11 10 9 11 10 10 10 10 11 10 10 10 10 nan
nan 14 12 9 9 9 9 11 13 11 12 13 13 11 14 16 14 14 12 10 10 11 10 9 10 12 12 11 11 10 10 10 9 10 10 10 10 10 10 9 10 10 nan
nan 13 11 9 10 11 10 10 11 11 12 12 14 15 10 8 11 12 11 11 12 11 11 11 10 11 12 11 10 9 10 10 11 10 9 10 10 10 10 10 10 11 nan
nan 11 10 10 9 10 12 11 10 11 12 12 15 15 12 9 9 9 11 12 12 11 11 11 11 11 12 12 12 11 10 10 10 11 10 10 9 10 11 10 10 11 nan
nan 10 9 10 11 11 14 12 11 11 11 12 13 14 13 10 11 11 10 10 11 12 12 12 11 10 11 11 12 12 11 11 12 11 10 9 10 10 10 11 11 10 nan
nan 11 11 10 11 12 12 12 13 12 11 12 13 13 13 13 11 11 11 11 12 12 12 12 13 11 8 9 10 11 10 11 12 12 11 8 10 11 9 10 10 11 nan
nan 13 11 9 9 11 14 16 15 14 14 14 13 13 13 13 12 13 12 12 12 13 13 13 13 14 12 10 9 10 10 12 10 10 10 9 9 10 10 10 10 10 nan
nan nan nan nan nan nan nan nan nan nan nan nan nan nan nan nan nan nan nan nan nan nan nan nan nan nan nan nan nan nan nan nan nan nan nan nan nan nan nan nan nan nan nan
CAPE
0 0 0 0 0 0 0 0 0 0 0 1 0 1 9 16 23 43 55 56 83 90 57 35 58 51 44 52 80 56 70 75 77 34 34 30 27 39 30 45 50 61 63
0 0 0 0 0 0 0 0 0 0 2 2 0 5 12 19 17 37 38 29 3 19 28 27 40 27 39 24 24 17 24 23 52 35 11 34 30 23 46 54 47 23 49
0 0 0 0 0 0 0 0 0 0 3 2 2 11 17 25 30 14 25 24 21 27 26 29 24 20 7 5 5 2 2 5 22 26 23 31 33 38 42 42 45 39 39
0 0 0 0 0 0 0 0 0 1 4 3 8 17 25 28 21 22 18 25 25 23 29 18 5 2 1 0 0 1 3 7 10 18 19 36 33 46 48 55 46 71 58
0 0 0 0 0 0 0 0 0 5 1 7 12 19 21 21 8 3 11 7 10 22 22 4 1 0 0 0 0 3 8 9 15 15 32 44 56 44 58 52 61 58 35
0 0 0 0 0 0 0 0 1 0 2 10 16 28 16 13 0 0 0 0 0 6 4 1 0 2 1 0 0 0 6 14 25 72 50 39 19 34 42 61 73 63 44
0 0 0 0 0 0 0 0 0 1 9 20 25 27 29 17 0 0 0 0 0 2 2 1 1 0 1 1 1 3 7 25 8 35 35 45 53 29 32 45 46 59 66
0 0 0 0 0 0 0 0 0 6 19 19 29 28 25 0 0 0 0 0 2 5 4 3 3 3 0 0 0 3 3 5 8 5 17 17 23 23 25 42 42 31 35
0 0 0 0 0 0 0 0 0 5 13 16 17 17 17 0 0 0 0 0 4 5 6 4 0 0 0 0 1 4 3 4 7 14 3 9 19 16 15 45 84 73 87
0 0 0 0 0 0 0 0 0 6 12 15 8 19 4 8 0 0 0 0 5 10 6 3 0 0 0 0 2 4 9 8 1 2 8 14 19 24 14 7 56 64 47
0 0 0 0 0 0 0 0 3 10 14 16 7 8 15 4 4 0 0 0 7 8 4 3 7 0 0 0 0 3 7 1 3 11 22 23 29 22 24 35 39 54 61
0 0 0 0 0 0 0 2 4 16 18 13 44 5 23 11 0 0 0 0 0 4 8 7 8 0 0 0 0 0 0 0 29 20 24 24 21 27 20 35 40 70 71
0 0 0 0 0 0 2 1 5 8 20 19 8 26 22 22 45 0 0 0 0 4 8 3 0 0 0 0 0 0 0 8 7 16 18 18 18 23 22 38 44 37 58
0 0 0 0 0 0 0 4 1 5 21 18 14 19 25 24 32 27 1 3 1 2 4 7 0 0 0 0 1 4 7 8 3 8 14 17 30 28 30 33 42 31 22
0 0 0 0 2 3 3 14 6 8 21 20 29 26 50 42 25 7 18 20 22 7 0 2 9 12 9 7 7 5 6 5 5 2 10 16 19 17 17 29 30 31 40
0 0 3 2 3 7 6 4 6 0 0 0 0 0 36 0 0 0 0 0 0 0 1 9 14 19 20 14 10 9 10 6 5 3 6 7 7 14 11 19 20 20 18
0 0 0 1 9 8 12 21 22 23 0 0 0 0 0 0 0 0 0 0 0 1 8 12 23 26 22 10 8 7 7 5 0 9 9 11 10 8 27 10 16 15 11
0 0 1 11 13 17 20 32 46 54 58 47 3 0 0 0 0 1 10 7 20 11 10 12 14 21 17 11 8 6 7 10 11 7 10 12 12 13 10 8 9 10 10
2 6 12 15 26 20 31 40 34 48 49 51 46 4 1 0 0 0 6 32 31 21 20 19 45 21 13 13 16 13 15 13 8 8 12 12 12 14 11 5 12 12 4
11 2 1 5 14 22 20 35 49 51 47 47 51 34 15 9 35 27 35 41 43 38 28 24 32 20 25 14 21 20 19 21 18 12 12 13 12 12 10 6 7 8 6
30 20 4 7 11 38 48 46 49 53 57 60 52 57 4 29 49 53 48 57 52 49 41 35 42 47 31 21 16 18 17 18 12 14 10 12 6 9 14 9 7 4 3
40 40 15 12 47 68 51 47 56 60 56 64 56 57 0 8 23 31 40 39 40 48 49 44 37 35 38 22 26 22 16 17 15 13 15 10 6 10 16 13 11 4 3
62 54 49 18 34 37 48 64 61 70 74 60 64 62 53 33 23 30 22 19 32 27 32 33 32 33 34 38 39 20 11 13 13 11 9 9 7 11 12 13 9 6 3
43 64 56 7 17 58 57 60 64 45 71 75 56 46 49 40 34 30 24 25 23 14 10 12 17 13 13 25 31 17 13 15 8 5 2 6 6 7 10 8 5 7 4
26 55 36 27 54 77 67 57 79 77 76 67 54 54 56 52 58 53 45 40 31 20 16 8 7 8 6 10 14 2 8 3 2 4 7 5 3 3 2 5 4 2 5
19 16 19 58 75 58 41 42 32 30 22 19 31 39 48 50 56 54 51 44 40 40 37 29 10 5 5 7 8 8 8 0 0 0 1 6 7 6 9 7 2 2 3